TimePST,TemperatureF,Dew PointF,Humidity,Sea Level PressureIn,VisibilityMPH,Wind Direction,Wind SpeedMPH,Gust SpeedMPH,PrecipitationIn,Events,Conditions,WindDirDegrees,DateUTC
12:15 AM,42.8,42.8,100,30.38,10.0,East,5.8,-,0.01,Rain,Light Rain,100,2012-12-09 08:15:00
12:55 AM,42.8,41.0,93,-9999,10.0,East,4.6,-,0.01,,Light Drizzle,100,2012-12-09 08:55:00
1:15 AM,42.8,41.0,93,30.37,10.0,East,3.5,-,N/A,,Light Drizzle,90,2012-12-09 09:15:00
1:35 AM,42.8,42.8,100,30.38,10.0,East,3.5,-,N/A,,Overcast,90,2012-12-09 09:35:00
1:55 AM,42.8,42.8,100,30.39,7.0,Calm,Calm,-,N/A,,Light Drizzle,0,2012-12-09 09:55:00
2:15 AM,42.8,41.0,93,30.39,10.0,ESE,3.5,-,N/A,,Overcast,110,2012-12-09 10:15:00
2:35 AM,42.8,41.0,93,30.39,10.0,Calm,Calm,-,0.01,,Overcast,0,2012-12-09 10:35:00
2:55 AM,42.8,41.0,93,30.39,10.0,ESE,3.5,-,0.01,,Overcast,120,2012-12-09 10:55:00
3:15 AM,42.8,41.0,93,30.39,10.0,Calm,Calm,-,N/A,,Overcast,0,2012-12-09 11:15:00
3:35 AM,42.8,42.8,100,30.39,7.0,East,3.5,-,N/A,,Drizzle,100,2012-12-09 11:35:00
3:55 AM,42.8,41.0,93,30.39,10.0,Calm,Calm,-,N/A,,Overcast,0,2012-12-09 11:55:00
4:15 AM,42.8,41.0,93,30.39,7.0,East,4.6,-,N/A,,Drizzle,90,2012-12-09 12:15:00
4:35 AM,42.8,41.0,93,30.39,7.0,East,4.6,-,N/A,,Drizzle,100,2012-12-09 12:35:00
4:55 AM,42.8,41.0,93,30.39,7.0,East,4.6,-,N/A,Rain,Light Rain,90,2012-12-09 12:55:00
5:15 AM,42.8,41.0,93,30.39,7.0,East,4.6,-,0.01,,Light Drizzle,90,2012-12-09 13:15:00
5:35 AM,42.8,41.0,93,30.39,5.0,ESE,4.6,-,0.01,,Drizzle,110,2012-12-09 13:35:00
5:55 AM,42.8,41.0,93,30.40,5.0,East,4.6,-,0.01,Rain,Light Rain,100,2012-12-09 13:55:00
6:15 AM,42.8,42.8,100,30.39,7.0,East,3.5,-,N/A,,Overcast,100,2012-12-09 14:15:00
6:35 AM,42.8,41.0,93,30.39,10.0,ESE,3.5,-,N/A,,Overcast,110,2012-12-09 14:35:00
6:55 AM,42.8,41.0,93,30.39,10.0,Calm,Calm,-,N/A,,Overcast,0,2012-12-09 14:55:00
7:15 AM,42.8,42.8,100,30.39,10.0,ESE,3.5,-,N/A,,Overcast,110,2012-12-09 15:15:00
7:35 AM,42.8,42.8,100,30.39,10.0,SE,5.8,-,N/A,,Overcast,140,2012-12-09 15:35:00
7:55 AM,42.8,42.8,100,30.38,7.0,Calm,Calm,-,N/A,,Light Drizzle,0,2012-12-09 15:55:00
8:15 AM,42.8,42.8,100,30.38,10.0,Calm,Calm,-,N/A,,Overcast,0,2012-12-09 16:15:00
8:35 AM,42.8,42.8,100,30.38,10.0,Calm,Calm,-,N/A,,Light Drizzle,0,2012-12-09 16:35:00
8:55 AM,42.8,42.8,100,30.40,4.0,ENE,3.5,-,0.01,,Drizzle,60,2012-12-09 16:55:00
9:15 AM,42.8,42.8,100,-9999,3.0,East,4.6,-,N/A,,Heavy Drizzle,80,2012-12-09 17:15:00
9:35 AM,42.8,42.8,100,30.40,3.0,ESE,3.5,-,0.01,,Drizzle,120,2012-12-09 17:35:00
9:55 AM,44.6,42.8,93,30.40,7.0,East,4.6,-,0.01,,Overcast,100,2012-12-09 17:55:00
10:15 AM,44.6,42.8,93,30.41,4.0,Calm,Calm,-,N/A,,Overcast,0,2012-12-09 18:15:00
10:35 AM,44.6,44.6,100,30.41,7.0,Calm,Calm,-,N/A,,Overcast,0,2012-12-09 18:35:00
10:55 AM,44.6,44.6,100,30.40,4.0,ESE,3.5,-,N/A,,Overcast,110,2012-12-09 18:55:00
11:15 AM,44.6,44.6,100,30.40,4.0,East,4.6,-,N/A,,Overcast,100,2012-12-09 19:15:00
11:35 AM,46.4,44.6,93,30.40,10.0,Calm,Calm,-,N/A,,Overcast,0,2012-12-09 19:35:00
11:55 AM,46.4,46.4,100,30.39,10.0,SE,3.5,-,N/A,,Overcast,130,2012-12-09 19:55:00
12:15 PM,48.2,46.4,93,30.38,10.0,SSE,4.6,-,N/A,,Overcast,160,2012-12-09 20:15:00
12:35 PM,48.2,46.4,93,30.37,10.0,SSE,9.2,-,N/A,,Overcast,160,2012-12-09 20:35:00
12:55 PM,50.0,46.4,87,30.39,10.0,South,8.1,-,N/A,,Overcast,180,2012-12-09 20:55:00
1:15 PM,50.0,46.4,87,30.39,10.0,South,6.9,-,N/A,,Overcast,170,2012-12-09 21:15:00
1:35 PM,50.0,46.4,87,30.38,10.0,SSE,5.8,-,N/A,,Overcast,160,2012-12-09 21:35:00
1:55 PM,50.0,46.4,87,30.38,7.0,SSW,10.4,17.3,0.01,,Overcast,210,2012-12-09 21:55:00
2:15 PM,50.0,46.4,87,30.38,10.0,South,5.8,-,N/A,,Overcast,180,2012-12-09 22:15:00
2:35 PM,50.0,46.4,87,30.39,10.0,South,6.9,-,N/A,,Overcast,170,2012-12-09 22:35:00
2:55 PM,50.0,46.4,87,30.38,2.0,South,8.1,-,N/A,,Heavy Drizzle,180,2012-12-09 22:55:00
3:15 PM,48.2,46.4,93,30.38,2.5,South,8.1,-,N/A,,Light Drizzle,170,2012-12-09 23:15:00
3:35 PM,48.2,46.4,93,30.37,4.0,South,8.1,-,N/A,,Overcast,170,2012-12-09 23:35:00
3:55 PM,48.2,46.4,93,30.38,3.0,South,8.1,-,N/A,,Overcast,180,2012-12-09 23:55:00
4:15 PM,48.2,46.4,93,30.38,3.0,South,6.9,-,N/A,Rain,Light Rain,180,2012-12-10 00:15:00
4:35 PM,48.2,46.4,93,30.38,2.5,South,6.9,-,N/A,,Light Drizzle,170,2012-12-10 00:35:00
4:55 PM,48.2,46.4,93,30.37,3.0,South,5.8,-,N/A,,Overcast,190,2012-12-10 00:55:00
5:15 PM,48.2,46.4,93,30.37,3.0,South,5.8,-,N/A,,Overcast,180,2012-12-10 01:15:00
5:35 PM,48.2,46.4,93,30.37,3.0,South,4.6,-,0.01,,Overcast,170,2012-12-10 01:35:00
5:55 PM,48.2,46.4,93,30.38,3.0,South,3.5,-,0.01,,Overcast,170,2012-12-10 01:55:00
6:15 PM,48.2,46.4,93,30.38,2.5,South,4.6,-,N/A,,Overcast,170,2012-12-10 02:15:00
6:35 PM,48.2,48.2,100,30.39,2.5,South,4.6,-,N/A,,Overcast,170,2012-12-10 02:35:00
6:55 PM,48.2,48.2,100,30.39,2.5,SSE,4.6,-,N/A,,Drizzle,160,2012-12-10 02:55:00
7:15 PM,48.2,48.2,100,30.40,2.5,South,3.5,-,N/A,,Drizzle,170,2012-12-10 03:15:00
7:35 PM,48.2,48.2,100,30.40,3.0,South,5.8,-,0.01,,Drizzle,170,2012-12-10 03:35:00
7:55 PM,50.0,48.2,94,30.40,4.0,South,5.8,-,0.01,,Overcast,180,2012-12-10 03:55:00
8:35 PM,50.0,48.2,94,30.40,5.0,South,8.1,-,N/A,,Light Drizzle,170,2012-12-10 04:35:00
8:55 PM,50.0,48.2,94,30.40,7.0,South,5.8,-,N/A,,Overcast,180,2012-12-10 04:55:00
9:15 PM,50.0,50.0,100,30.40,7.0,South,8.1,-,N/A,,Overcast,190,2012-12-10 05:15:00
9:35 PM,50.0,50.0,100,30.40,7.0,South,9.2,-,N/A,,Overcast,190,2012-12-10 05:35:00
9:55 PM,50.0,50.0,100,30.40,10.0,South,9.2,-,N/A,,Overcast,190,2012-12-10 05:55:00
10:15 PM,50.0,50.0,100,30.41,5.0,SSW,8.1,-,N/A,,Overcast,200,2012-12-10 06:15:00
10:55 PM,50.0,50.0,100,30.41,1.8,SSW,6.9,-,N/A,Rain,Light Rain,210,2012-12-10 06:55:00
11:15 PM,50.0,50.0,100,30.42,2.0,SSW,9.2,-,N/A,,Light Drizzle,210,2012-12-10 07:15:00
11:35 PM,50.0,50.0,100,30.42,1.5,SSW,9.2,-,N/A,,Light Drizzle,200,2012-12-10 07:35:00
11:55 PM,50.0,50.0,100,30.42,1.5,SSW,8.1,-,0.01,,Overcast,200,2012-12-10 07:55:00